Sigfox identifier Datetime Temperature Humidity SNR
003AA5BA 2019-04-23 14:44:26 16.5 31 21.3
003AA5BA 2019-04-23 14:10:10 16.5 31 21.3
003AA5BA 2019-04-23 13:35:54 16.3 31 21.4
003AA5BA 2019-04-23 13:01:35 16.3 31 22.4
003AA5BA 2019-04-23 12:27:18 16.1 31 22.3
003AA5BA 2019-04-23 11:53:03 16 31 22.2
003AA5BA 2019-04-23 11:18:45 16 31 22.2
003AA5BA 2019-04-23 10:44:28 15.9 31 22.1
003AA5BA 2019-04-23 10:10:11 15.9 31 22.1
003AA5BA 2019-04-23 09:35:54 15.8 31 22
003AA5BA 2019-04-23 09:01:36 15.9 31 21.9
003AA5BA 2019-04-23 08:27:20 15.8 30 21.9
003AA5BA 2019-04-23 07:53:03 15.8 30 21.8
003AA5BA 2019-04-23 07:18:48 15.8 30 21.9
003AA5BA 2019-04-23 06:44:31 15.8 30 21.9
003AA5BA 2019-04-23 06:10:16 15.8 30 22
003AA5BA 2019-04-23 05:35:59 15.7 30 21.9
003AA5BA 2019-04-23 05:01:43 15.7 30 22
003AA5BA 2019-04-23 04:27:27 15.7 30 22
003AA5BA 2019-04-23 03:53:11 15.8 30 22
003AA5BA 2019-04-23 03:18:55 15.7 30 22
003AA5BA 2019-04-23 02:44:40 15.8 30 22
003AA5BA 2019-04-23 02:10:25 15.8 30 22
003AA5BA 2019-04-23 01:36:09 15.8 30 22
003AA5BA 2019-04-23 01:01:53 15.8 30 22.1
003AA5BA 2019-04-23 00:27:37 15.8 30 21.9
003AA5BA 2019-04-22 23:53:21 15.8 30 21.9
003AA5BA 2019-04-22 23:19:03 15.8 30 21.9
003AA5BA 2019-04-22 22:44:48 15.9 30 20.7
003AA5BA 2019-04-22 22:10:30 16 30 20.7
003AA5BA 2019-04-22 21:36:15 16 30 20.7
003AA5BA 2019-04-22 21:02:00 16 30 20.6
003AA5BA 2019-04-22 20:27:45 16 30 20.5
003AA5BA 2019-04-22 19:53:30 16 30 20.4
003AA5BA 2019-04-22 19:19:14 16.1 30 20.2
003AA5BA 2019-04-22 18:44:58 16.2 30 20.2
003AA5BA 2019-04-22 18:10:42 16.3 30 20.1
003AA5BA 2019-04-22 17:36:26 16.3 30 20
003AA5BA 2019-04-22 17:02:10 16.1 30 20
003AA5BA 2019-04-22 16:27:55 16 30 20
003AA5BA 2019-04-22 15:53:41 16 30 19.9
003AA5BA 2019-04-22 15:19:23 16 30 19.9
003AA5BA 2019-04-22 14:45:05 16 30 19.8
003AA5BA 2019-04-22 14:10:49 16 30 19.8
003AA5BA 2019-04-22 13:36:32 16 30 19.6
003AA5BA 2019-04-22 13:02:16 16 30 19.6
003AA5BA 2019-04-22 12:28:00 15.9 30 19.7
003AA5BA 2019-04-22 11:53:43 16 30 19.7
003AA5BA 2019-04-22 11:19:25 15.9 30 19.7
003AA5BA 2019-04-22 10:45:09 16 30 19.9
003AA5BA 2019-04-22 10:10:52 15.8 30 19.8
003AA5BA 2019-04-22 09:36:35 15.8 30 19.9
003AA5BA 2019-04-22 09:02:18 15.8 29 20
003AA5BA 2019-04-22 08:28:02 15.8 29 20
003AA5BA 2019-04-22 07:53:45 15.8 29 19.9
003AA5BA 2019-04-22 07:19:28 15.8 29 20.1
003AA5BA 2019-04-22 06:45:13 15.8 29 20.2
003AA5BA 2019-04-22 06:10:56 15.8 29 20.4
003AA5BA 2019-04-22 05:36:39 15.8 29 20.4
003AA5BA 2019-04-22 05:02:21 15.8 29 20.5
003AA5BA 2019-04-22 04:28:04 15.8 29 20.5
003AA5BA 2019-04-22 03:53:48 15.8 29 20.4
003AA5BA 2019-04-22 03:19:32 15.8 29 20.3
003AA5BA 2019-04-22 02:45:17 15.8 29 20.4
003AA5BA 2019-04-22 02:11:01 15.7 29 20.6
003AA5BA 2019-04-22 01:36:44 15.8 29 20.6
003AA5BA 2019-04-22 01:02:27 15.6 29 20.8
003AA5BA 2019-04-22 00:28:10 15.7 29 20.7
003AA5BA 2019-04-21 23:53:53 15.6 29 20.7
003AA5BA 2019-04-21 23:19:37 15.6 29 20.7
003AA5BA 2019-04-21 22:45:19 15.6 29 20.7
003AA5BA 2019-04-21 22:11:02 15.6 29 20.5
003AA5BA 2019-04-21 21:36:46 15.6 29 20.5
003AA5BA 2019-04-21 21:02:29 15.6 29 20.5
003AA5BA 2019-04-21 20:28:12 15.6 29 20.5
003AA5BA 2019-04-21 19:53:55 15.6 29 20.5
003AA5BA 2019-04-21 19:19:38 15.6 29 20.6
003AA5BA 2019-04-21 18:45:20 15.6 29 20.7
003AA5BA 2019-04-21 18:11:04 15.6 29 20.7
003AA5BA 2019-04-21 17:36:49 15.6 29 20.5
003AA5BA 2019-04-21 17:02:31 15.6 29 20.5
003AA5BA 2019-04-21 16:28:16 15.6 29 20.5
003AA5BA 2019-04-21 15:53:59 15.6 29 20.5
003AA5BA 2019-04-21 15:19:43 15.6 29 20.5
003AA5BA 2019-04-21 14:45:25 15.6 29 20.5
003AA5BA 2019-04-21 14:11:10 15.6 29 20.5
003AA5BA 2019-04-21 13:36:54 15.6 29 20.7
003AA5BA 2019-04-21 13:02:37 15.6 29 20.7
003AA5BA 2019-04-21 12:28:20 15.6 29 20.6
003AA5BA 2019-04-21 11:54:04 15.6 29 20.6
003AA5BA 2019-04-21 11:19:48 15.6 28 20.5
003AA5BA 2019-04-21 10:45:32 15.6 28 20.7
003AA5BA 2019-04-21 10:11:17 15.6 28 20.7
003AA5BA 2019-04-21 09:37:02 15.7 28 20.8
003AA5BA 2019-04-21 09:02:47 15.8 28 20.9
003AA5BA 2019-04-21 08:28:33 15.8 28 21
003AA5BA 2019-04-21 07:54:18 15.8 28 21.2
003AA5BA 2019-04-21 07:20:04 15.8 28 21.3
003AA5BA 2019-04-21 06:45:49 15.8 28 21.3
003AA5BA 2019-04-21 06:11:34 15.8 28 21.4
003AA5BA 2019-04-21 05:37:18 15.8 28 21.4
003AA5BA 2019-04-21 05:03:03 15.8 28 21.4
003AA5BA 2019-04-21 04:28:47 15.8 28 22.4
003AA5BA 2019-04-21 03:54:34 15.8 28 22.6
003AA5BA 2019-04-21 03:20:18 15.8 28 22.6
003AA5BA 2019-04-21 02:46:04 15.8 28 22.7
003AA5BA 2019-04-21 02:11:49 15.7 28 22.7
003AA5BA 2019-04-21 01:37:34 15.8 28 22.7
003AA5BA 2019-04-21 01:03:20 15.6 28 22.8
003AA5BA 2019-04-21 00:29:06 15.8 28 22.7
003AA5BA 2019-04-20 23:54:52 15.8 28 22.7
003AA5BA 2019-04-20 23:20:37 15.6 28 22.8
003AA5BA 2019-04-20 22:46:24 15.6 28 22.8
003AA5BA 2019-04-20 22:12:09 15.6 28 22.8
003AA5BA 2019-04-20 21:37:56 15.6 28 22.8
003AA5BA 2019-04-20 21:03:40 15.6 28 22.8
003AA5BA 2019-04-20 20:29:26 15.6 28 22.6
003AA5BA 2019-04-20 19:55:11 15.7 28 22.6
003AA5BA 2019-04-20 19:20:56 15.7 28 22.5
003AA5BA 2019-04-20 18:46:41 15.7 28 22.4
003AA5BA 2019-04-20 18:12:27 15.8 28 22.4
003AA5BA 2019-04-20 17:38:14 15.7 28 22.3
003AA5BA 2019-04-20 17:04:00 15.6 28 22.3
003AA5BA 2019-04-20 16:29:46 15.7 28 22.4
003AA5BA 2019-04-20 15:55:30 15.7 28 22.3
003AA5BA 2019-04-20 15:21:16 15.6 28 22.2
003AA5BA 2019-04-20 14:47:02 15.6 28 21.2
003AA5BA 2019-04-20 14:12:45 15.6 28 21.1
003AA5BA 2019-04-20 13:38:29 15.6 27 21
003AA5BA 2019-04-20 13:04:15 15.6 27 21
003AA5BA 2019-04-20 12:29:56 15.6 27 20.9
003AA5BA 2019-04-20 11:55:41 15.6 27 20.7
003AA5BA 2019-04-20 11:21:26 15.6 27 20.7
003AA5BA 2019-04-20 10:47:10 15.6 27 20.4
003AA5BA 2019-04-20 10:12:54 15.8 27 20.5
003AA5BA 2019-04-20 09:38:40 15.8 27 20.4
003AA5BA 2019-04-20 09:04:24 15.8 27 20.3
003AA5BA 2019-04-20 08:30:07 15.8 27 20.3
003AA5BA 2019-04-20 07:55:52 15.8 27 20.3
003AA5BA 2019-04-20 07:21:36 15.9 27 20
003AA5BA 2019-04-20 06:47:23 15.9 27 20.1
003AA5BA 2019-04-20 06:13:07 15.8 27 20.2
003AA5BA 2019-04-20 05:38:54 15.8 27 20.3
003AA5BA 2019-04-20 05:04:38 15.8 27 20.3
003AA5BA 2019-04-20 04:30:23 15.8 27 20.2
003AA5BA 2019-04-20 03:56:06 15.8 27 20.2
003AA5BA 2019-04-20 03:21:50 15.9 27 20.3
003AA5BA 2019-04-20 02:47:34 16 27 20.2
003AA5BA 2019-04-20 02:13:20 16 27 20.1
003AA5BA 2019-04-20 01:39:04 16 27 20.2
003AA5BA 2019-04-20 01:04:47 16 27 20.1
003AA5BA 2019-04-20 00:30:30 16 27 20.2
003AA5BA 2019-04-19 23:56:15 16.1 27 20.3
003AA5BA 2019-04-19 23:21:59 16.2 27 20.3
003AA5BA 2019-04-19 22:47:47 16.2 27 20.5
003AA5BA 2019-04-19 22:13:32 16.3 27 20.7
003AA5BA 2019-04-19 21:39:15 16.3 27 20.7
003AA5BA 2019-04-19 21:05:00 16.3 27 20.8
003AA5BA 2019-04-19 20:30:44 16.3 27 20.8
003AA5BA 2019-04-19 19:56:29 16.3 27 20.8
003AA5BA 2019-04-19 19:22:15 16.3 27 20.8
003AA5BA 2019-04-19 18:47:59 16.5 27 20.9
003AA5BA 2019-04-19 18:13:43 16.4 27 21
003AA5BA 2019-04-19 17:39:27 16.3 27 21.2
003AA5BA 2019-04-19 17:05:12 16.3 26 21.2
003AA5BA 2019-04-19 16:30:57 16.3 26 21.2
003AA5BA 2019-04-19 15:56:42 16.3 26 21.2
003AA5BA 2019-04-19 15:22:28 16.3 26 21.2
003AA5BA 2019-04-19 14:48:12 16.2 26 21.2
003AA5BA 2019-04-19 14:13:58 16.2 26 21.3
003AA5BA 2019-04-19 13:39:43 16 26 21.3
003AA5BA 2019-04-19 13:05:28 16 26 21.3
003AA5BA 2019-04-19 12:31:13 16 26 21.4
003AA5BA 2019-04-19 11:56:56 16 26 21.4
003AA5BA 2019-04-19 11:22:40 16 26 21.4
003AA5BA 2019-04-19 10:48:24 16 26 21.4
003AA5BA 2019-04-19 10:14:09 16 26 21.3
003AA5BA 2019-04-19 09:39:53 16 26 21.4
003AA5BA 2019-04-19 09:05:37 16 26 21.4
003AA5BA 2019-04-19 08:31:21 16 26 21.3
003AA5BA 2019-04-19 07:57:07 16 26 21.3
003AA5BA 2019-04-19 07:22:51 16 26 21.4
003AA5BA 2019-04-19 06:48:36 16 26 21.4
003AA5BA 2019-04-19 06:14:20 16 26 21.4
003AA5BA 2019-04-19 05:40:05 16 26 21.5
003AA5BA 2019-04-19 04:31:36 16 26 21.5
003AA5BA 2019-04-19 03:57:20 16.1 26 21.4
003AA5BA 2019-04-19 03:23:05 16.2 26 21.4
003AA5BA 2019-04-19 02:48:50 16.1 26 21.3
003AA5BA 2019-04-19 02:14:35 16.1 25 21.4
003AA5BA 2019-04-19 01:40:20 16.3 25 21.4
003AA5BA 2019-04-19 01:06:04 16.3 25 21.3
003AA5BA 2019-04-19 00:31:48 16.4 25 21.2
003AA5BA 2019-04-18 23:57:33 16.5 25 21.3
003AA5BA 2019-04-18 23:23:18 16.5 25 21.2
003AA5BA 2019-04-18 22:49:02 16.5 25 21.3
003AA5BA 2019-04-18 22:14:47 16.7 25 21.3
003AA5BA 2019-04-18 21:40:32 16.7 25 21.3
003AA5BA 2019-04-18 21:06:16 16.7 25 21.3
003AA5BA 2019-04-18 20:32:00 16.7 25 21.4
003AA5BA 2019-04-18 19:57:43 16.7 25 21.4
003AA5BA 2019-04-18 19:23:27 16.8 25 21.5
003AA5BA 2019-04-18 18:49:11 16.8 25 21.6
003AA5BA 2019-04-18 18:14:54 16.8 25 21.6
003AA5BA 2019-04-18 17:40:38 16.7 25 21.7
003AA5BA 2019-04-18 17:06:21 16.7 25 21.5
003AA5BA 2019-04-18 16:32:06 16.7 25 21.5
003AA5BA 2019-04-18 15:57:50 16.7 25 21.6
003AA5BA 2019-04-18 15:23:36 16.5 25 21.6
003AA5BA 2019-04-18 14:49:21 16.5 25 21.4
003AA5BA 2019-04-18 14:15:06 16.5 25 21.5
003AA5BA 2019-04-18 13:40:50 16.3 25 21.6
003AA5BA 2019-04-18 13:06:32 16.3 25 21.7
003AA5BA 2019-04-18 12:32:18 16.3 25 21.8
003AA5BA 2019-04-18 11:57:59 16.3 25 21.8
003AA5BA 2019-04-18 11:23:43 16.3 25 21.9
003AA5BA 2019-04-18 10:49:27 16.3 25 22.1
003AA5BA 2019-04-18 10:15:12 16.3 25 22.2
003AA5BA 2019-04-18 09:40:57 16.3 24 22.2
003AA5BA 2019-04-18 09:06:40 16.3 24 22.4
003AA5BA 2019-04-18 08:32:24 16.3 24 22.3
003AA5BA 2019-04-18 07:58:09 16.3 24 22.2
003AA5BA 2019-04-18 07:23:54 16.3 24 22.3
003AA5BA 2019-04-18 06:49:38 16.3 24 22.4
003AA5BA 2019-04-18 06:15:25 16.3 24 22.4
003AA5BA 2019-04-18 05:41:08 16.2 24 22.3
003AA5BA 2019-04-18 05:06:52 16.1 24 22.3
003AA5BA 2019-04-18 04:32:36 16.2 24 22.2
003AA5BA 2019-04-18 03:58:21 16.2 24 22.1
003AA5BA 2019-04-18 03:24:06 16.3 24 22.2
003AA5BA 2019-04-18 02:49:50 16.3 24 22.1
003AA5BA 2019-04-18 02:15:35 16.3 24 22.1
003AA5BA 2019-04-18 01:41:19 16.5 24 21.9
003AA5BA 2019-04-18 01:07:06 16.5 24 22
003AA5BA 2019-04-18 00:32:46 16.7 24 21.9
003AA5BA 2019-04-17 23:58:30 16.7 24 21.9
003AA5BA 2019-04-17 23:24:14 16.8 24 21.7
003AA5BA 2019-04-17 22:49:58 16.9 24 21.6
003AA5BA 2019-04-17 22:15:43 16.9 24 21.4
003AA5BA 2019-04-17 21:41:27 16.8 24 21.3
003AA5BA 2019-04-17 21:07:12 16.7 24 21.1
003AA5BA 2019-04-17 20:32:58 16.7 23 20.9
003AA5BA 2019-04-17 19:58:43 16.7 23 20.7
003AA5BA 2019-04-17 19:24:28 16.7 23 20.5
003AA5BA 2019-04-17 18:50:12 16.7 23 20.5
003AA5BA 2019-04-17 18:15:56 16.7 23 20.6
003AA5BA 2019-04-17 17:41:40 16.7 23 20.4
003AA5BA 2019-04-17 17:07:26 16.7 23 20.1
003AA5BA 2019-04-17 16:33:10 16.7 23 20
003AA5BA 2019-04-17 15:58:55 16.7 23 20
003AA5BA 2019-04-17 15:24:38 16.7 23 19.9
003AA5BA 2019-04-17 14:50:22 16.8 23 19.9
003AA5BA 2019-04-17 14:16:06 16.9 23 19.9
003AA5BA 2019-04-17 13:41:50 17.1 23 19.6
003AA5BA 2019-04-17 12:33:19 17.1 23 19.4
003AA5BA 2019-04-17 11:59:03 17 23 19.4
003AA5BA 2019-04-17 11:24:48 16.9 23 19.3
003AA5BA 2019-04-17 10:50:32 16.9 23 19.2
003AA5BA 2019-04-17 10:16:17 16.9 22 18.8
003AA5BA 2019-04-17 09:42:02 16.9 22 18.7
003AA5BA 2019-04-17 09:07:47 16.9 22 18.4
003AA5BA 2019-04-17 08:33:32 17 22 18.4
003AA5BA 2019-04-17 07:59:15 17.1 22 18.2
003AA5BA 2019-04-17 07:25:00 17.3 22 18.3
003AA5BA 2019-04-17 06:50:44 17.5 22 18.6
003AA5BA 2019-04-17 06:16:28 17.5 22 18.8
003AA5BA 2019-04-17 05:42:12 17.6 22 18.9
003AA5BA 2019-04-17 05:07:56 17.6 22 18.9
003AA5BA 2019-04-17 04:33:41 17.8 22 18.7
003AA5BA 2019-04-17 03:59:25 17.8 22 18.6
003AA5BA 2019-04-17 03:25:09 17.9 22 18.4
003AA5BA 2019-04-17 02:50:53 18 22 18.2
003AA5BA 2019-04-17 02:16:37 18 22 18.1
003AA5BA 2019-04-17 01:42:21 18 22 18
003AA5BA 2019-04-17 01:08:06 18 22 17.8
003AA5BA 2019-04-17 00:33:50 18 21 17.6
003AA5BA 2019-04-16 23:59:34 18 21 17.6
003AA5BA 2019-04-16 23:25:18 18 21 17.6
003AA5BA 2019-04-16 22:51:02 18 21 17.4
003AA5BA 2019-04-16 22:16:47 18.4 21 17.3
003AA5BA 2019-04-16 21:42:31 18.6 21 17.2
003AA5BA 2019-04-16 21:08:16 18.8 21 17.2
003AA5BA 2019-04-16 20:33:58 18.8 21 17.5
003AA5BA 2019-04-16 19:59:42 19 21 17.5
003AA5BA 2019-04-16 19:25:25 19 21 17.4
003AA5BA 2019-04-16 18:51:10 19 21 17.6
003AA5BA 2019-04-16 18:16:54 19 21 17.6
003AA5BA 2019-04-16 17:42:37 19.2 20 17.6
003AA5BA 2019-04-16 16:34:07 19.5 20 17.4
003AA5BA 2019-04-16 15:59:52 19.7 20 16.8
003AA5BA 2019-04-16 15:25:36 20.1 20 16.5
003AA5BA 2019-04-16 14:51:20 20.5 20 16.5
003AA5BA 2019-04-16 14:17:03 21 20 16.5
003AA5BA 2019-04-16 13:42:49 21.2 20 16.6
003AA5BA 2019-04-16 13:08:31 21.2 20 16.7
003AA5BA 2019-04-16 12:34:14 21.2 20 17
003AA5BA 2019-04-16 12:00:00 21.2 20 17.2
003AA5BA 2019-04-16 11:25:44 21.2 20 17.4
003AA5BA 2019-04-16 10:51:25 21.2 20 17.3
003AA5BA 2019-04-16 10:17:09 21.2 20 17.6
003AA5BA 2019-04-16 09:42:52 21.2 20 17.8
003AA5BA 2019-04-16 09:08:35 21.2 20 17.9
003AA5BA 2019-04-16 08:34:20 21.1 20 17.8
003AA5BA 2019-04-16 08:00:01 21.1 20 18
003AA5BA 2019-04-16 07:25:45 21.2 20 18
003AA5BA 2019-04-16 06:51:26 21.2 20 18.1
003AA5BA 2019-04-16 06:17:10 21.2 20 18
003AA5BA 2019-04-16 05:42:52 21.2 20 17.8
003AA5BA 2019-04-16 05:08:35 21.2 20 18
003AA5BA 2019-04-16 04:34:18 21.2 20 18.1
003AA5BA 2019-04-16 04:00:00 21.2 20 18.2
003AA5BA 2019-04-16 03:25:41 21.2 20 18.4
003AA5BA 2019-04-16 02:51:24 21.2 20 18.6
003AA5BA 2019-04-16 02:17:06 21.2 20 18.8
003AA5BA 2019-04-16 01:42:47 21.2 19 19
003AA5BA 2019-04-16 01:08:30 21.2 19 19.2
003AA5BA 2019-04-16 00:34:13 21.2 19 19.4
003AA5BA 2019-04-15 23:59:58 21.2 19 19.5
003AA5BA 2019-04-15 23:25:38 21.4 19 19.7
003AA5BA 2019-04-15 22:51:21 21.2 19 19.9
003AA5BA 2019-04-15 22:17:03 21.3 19 19.9
003AA5BA 2019-04-15 21:42:45 21.4 19 20.1
003AA5BA 2019-04-15 21:08:27 21.4 19 20.4
003AA5BA 2019-04-15 20:34:09 21.4 19 21.7
003AA5BA 2019-04-15 19:59:52 21.4 19 21.8
003AA5BA 2019-04-15 19:25:33 21.4 19 21.9
003AA5BA 2019-04-15 18:51:14 21.4 19 21.9
003AA5BA 2019-04-15 18:16:58 21.4 19 22.1
003AA5BA 2019-04-15 17:42:36 21.4 19 22.2
003AA5BA 2019-04-15 17:08:21 21.4 18 22.4
003AA5BA 2019-04-15 16:34:01 21.6 18 22.6
003AA5BA 2019-04-15 15:59:44 21.6 18 22.8
003AA5BA 2019-04-15 15:25:26 21.8 18 22.9
003AA5BA 2019-04-15 14:51:08 21.8 18 23
003AA5BA 2019-04-15 14:16:54 22 18 23.1
003AA5BA 2019-04-15 13:42:32 22.1 18 23.2
003AA5BA 2019-04-15 13:08:15 22.2 17 23.4
003AA5BA 2019-04-15 12:33:58 22.5 17 24
003AA5BA 2019-04-15 11:59:41 22.3 15 24.1
003AA5BA 2019-04-15 11:25:22 22.2 15 24.1
003AA5BA 2019-04-15 10:51:05 22.2 16 24.2
003AA5BA 2019-04-15 10:16:47 22.2 16 24.1
003AA5BA 2019-04-15 09:42:30 22.2 16 24.1
003AA5BA 2019-04-15 09:08:12 22 16 24.2
003AA5BA 2019-04-15 08:33:54 22 16 24.2
003AA5BA 2019-04-15 07:59:36 22 16 24.3
003AA5BA 2019-04-15 07:25:18 21.8 16 24.8
003AA5BA 2019-04-15 06:51:01 21.8 16 24.7
003AA5BA 2019-04-15 06:16:43 21.8 16 24.2
003AA5BA 2019-04-15 05:42:24 21.8 17 24.2
003AA5BA 2019-04-15 05:08:06 21.8 17 24.3
003AA5BA 2019-04-15 04:33:48 21.8 17 24.8
003AA5BA 2019-04-15 03:59:31 21.8 17 24.8
003AA5BA 2019-04-15 03:25:12 21.8 17 24.8
003AA5BA 2019-04-15 02:50:54 21.8 17 24.8
003AA5BA 2019-04-15 02:16:36 21.8 17 24.8
003AA5BA 2019-04-15 01:42:17 21.8 17 24.8
003AA5BA 2019-04-15 01:07:58 21.8 17 24.8
003AA5BA 2019-04-15 00:33:40 21.8 17 24.8
003AA5BA 2019-04-14 23:59:20 21.8 17 24.8
003AA5BA 2019-04-14 23:25:03 21.8 17 24.8
003AA5BA 2019-04-14 22:50:45 21.8 17 24.7
003AA5BA 2019-04-14 22:16:27 21.8 17 24.2
003AA5BA 2019-04-14 21:42:08 21.9 18 24.2
003AA5BA 2019-04-14 21:07:49 22 18 24.2
003AA5BA 2019-04-14 20:33:31 22 18 24.2
003AA5BA 2019-04-14 19:59:12 22.1 18 24.2
003AA5BA 2019-04-14 19:24:55 22.1 18 24.2
003AA5BA 2019-04-14 18:50:37 22.1 17 24.3
003AA5BA 2019-04-14 18:16:18 22 17 24.2
003AA5BA 2019-04-14 17:42:00 22 17 24.2
003AA5BA 2019-04-14 17:07:43 21.9 17 23.7
003AA5BA 2019-04-14 16:33:24 21.9 17 23.7
003AA5BA 2019-04-14 15:59:05 21.8 17 23.7
003AA5BA 2019-04-14 15:24:46 21.8 17 23.7
003AA5BA 2019-04-14 14:50:26 21.9 17 23.7
003AA5BA 2019-04-14 14:16:07 21.9 18 23
003AA5BA 2019-04-14 13:41:48 21.9 18 23
003AA5BA 2019-04-14 13:07:29 22 18 22.9
003AA5BA 2019-04-14 12:33:10 22 18 23
003AA5BA 2019-04-14 11:58:51 22 18 23.1
003AA5BA 2019-04-14 11:24:31 21.9 18 23.1
003AA5BA 2019-04-14 10:50:12 21.8 18 23.1
003AA5BA 2019-04-14 10:15:52 21.9 18 23.1
003AA5BA 2019-04-14 09:41:32 21.8 18 23.1
003AA5BA 2019-04-14 09:07:13 21.8 18 23.1
003AA5BA 2019-04-14 08:32:53 21.8 17 23.2
003AA5BA 2019-04-14 07:58:33 21.8 17 23.2
003AA5BA 2019-04-14 07:24:14 21.8 17 23.1
003AA5BA 2019-04-14 06:49:57 21.8 17 23.2
003AA5BA 2019-04-14 06:15:39 21.8 17 23.1
003AA5BA 2019-04-14 05:41:21 21.8 17 23.1
003AA5BA 2019-04-14 05:07:04 21.8 17 23.1
003AA5BA 2019-04-14 04:32:47 21.8 17 23.1
003AA5BA 2019-04-14 03:58:29 21.8 17 23
003AA5BA 2019-04-14 03:24:11 21.9 17 23.1
003AA5BA 2019-04-14 02:49:54 21.9 17 23.1
003AA5BA 2019-04-14 02:15:37 22 17 23.1
003AA5BA 2019-04-14 01:41:19 22 17 23.1
003AA5BA 2019-04-14 01:07:02 22 17 23.1
003AA5BA 2019-04-14 00:32:44 22 17 23.1
003AA5BA 2019-04-13 23:58:26 22 17 23.1
003AA5BA 2019-04-13 23:24:06 22 17 23.1
003AA5BA 2019-04-13 22:49:48 22 17 23.1
003AA5BA 2019-04-13 22:15:29 22 17 23.1
003AA5BA 2019-04-13 21:41:12 22 17 22.9
003AA5BA 2019-04-13 21:06:54 22 17 22.8
003AA5BA 2019-04-13 20:32:37 22 17 22.9
003AA5BA 2019-04-13 19:58:20 22.1 17 22.8
003AA5BA 2019-04-13 19:24:02 22.2 17 22.9
003AA5BA 2019-04-13 18:49:44 22.2 17 22.9
003AA5BA 2019-04-13 18:15:26 22.2 17 23.5
003AA5BA 2019-04-13 17:41:08 22.2 17 23.5
003AA5BA 2019-04-13 17:06:50 22.2 17 23.5
003AA5BA 2019-04-13 16:32:31 22.2 17 23.5
003AA5BA 2019-04-13 15:58:12 22.2 17 23.5
003AA5BA 2019-04-13 15:23:54 22.2 17 23.6
003AA5BA 2019-04-13 14:49:35 22.2 17 23.5
003AA5BA 2019-04-13 14:15:15 22.3 17 23.5
003AA5BA 2019-04-13 13:40:56 22.4 17 23.5
003AA5BA 2019-04-13 13:06:37 22.4 17 23.5
003AA5BA 2019-04-13 12:32:18 22.5 17 24
003AA5BA 2019-04-13 11:57:58 22.5 17 24
003AA5BA 2019-04-13 11:23:40 22.5 17 23.9
003AA5BA 2019-04-13 10:49:21 22.4 17 23.9
003AA5BA 2019-04-13 10:15:02 22.3 17 23.9
003AA5BA 2019-04-13 09:40:43 22.3 17 24.4
003AA5BA 2019-04-13 09:06:23 22.3 17 24.4
003AA5BA 2019-04-13 08:32:03 22.3 17 24.4
003AA5BA 2019-04-13 07:57:43 22.2 17 24.5
003AA5BA 2019-04-13 07:23:25 22.2 16 24.5
003AA5BA 2019-04-13 06:49:06 22.2 16 24.5
003AA5BA 2019-04-13 06:14:47 22.3 16 24.5
003AA5BA 2019-04-13 05:40:29 22.2 16 24.5
003AA5BA 2019-04-13 05:06:10 22.2 16 24.9
003AA5BA 2019-04-13 04:31:51 22.2 16 25.4
003AA5BA 2019-04-13 03:57:32 22.3 16 25.4
003AA5BA 2019-04-13 03:23:13 22.5 16 25.4
003AA5BA 2019-04-13 02:48:55 22.5 17 25.5
003AA5BA 2019-04-13 02:14:36 22.5 17 25.5
003AA5BA 2019-04-13 01:40:18 22.5 17 25.7
003AA5BA 2019-04-13 01:05:59 22.5 17 25.7
003AA5BA 2019-04-13 00:31:41 22.5 17 25.9
003AA5BA 2019-04-12 23:57:21 22.5 17 26
003AA5BA 2019-04-12 23:23:03 22.6 17 26.1
003AA5BA 2019-04-12 22:48:45 22.7 17 26.3
003AA5BA 2019-04-12 22:14:26 22.7 17 25.9
003AA5BA 2019-04-12 21:40:08 22.7 18 26.1
003AA5BA 2019-04-12 21:05:49 22.8 18 26.3
003AA5BA 2019-04-12 20:31:30 22.7 18 26.5
003AA5BA 2019-04-12 19:57:12 22.7 17 26.6
003AA5BA 2019-04-12 19:22:52 22.8 17 26.2
003AA5BA 2019-04-12 18:48:34 22.8 16 26.4
003AA5BA 2019-04-12 18:14:14 22.9 15 26.6
003AA5BA 2019-04-12 17:39:54 23.1 15 26.9
003AA5BA 2019-04-12 17:05:34 23.1 16 27.4
003AA5BA 2019-04-12 16:31:13 23.1 16 27.8
003AA5BA 2019-04-12 15:56:53 23.1 16 28.3
003AA5BA 2019-04-12 15:22:35 23 16 29.1
003AA5BA 2019-04-12 14:48:15 22.9 16 28.7
003AA5BA 2019-04-12 14:13:56 22.7 17 27.9
003AA5BA 2019-04-12 13:39:37 22.2 18 23.7
003AA5BA 2019-04-12 13:05:17 21 20 0